[[{"header":{"parameterUnit":"m.s-1","parameterCategory":1,"la1":30.2991,"la2":30.254,"lo1":-89.0895,"lo2":-89.0444,"dy":0.0017,"dx":0.0017,"nx":28,"ny":28,"refTime":"2024-03-03T03:00:00:Z","depth":0,"parameterNumber":2,"parameterNumberName":"U-component_of_WINDS"},"data":[0,0,0,0,0,0,0,0,0,0,0,0,0,0,0,0,0,0,0,0,0,0,0,0,0,0,0,0,0,0,0,0,0,0,0,0,0,0,0,0,0,0,0,0,0,0,0,0,0,0,0,0,0,0,0,0,0,0,-1.0012,-1.0012,0,-1.0037,-1.0038,-1.0038,-1.0012,-1.0011,-1.001,-1.0009,-1.0038,-1.0039,-1.0041,0,0,0,0,0,0,0,0,0,0,0,0,0,-0.9943,-0.9944,-1.0012,-1.0012,-1.0012,-1.0037,-1.0038,-1.0038,-1.0012,-1.0011,-1.0009,-1.0008,-1.0037,-1.0039,-1.0041,0,0,0,0,0,0,0,0,0,0,0,0,0,-0.9971,-0.9945,-1.0011,-1.0002,-1.0002,-1.0037,-1.0038,-1.0038,-1.0012,-1.0011,-1.0009,-1.0008,-1.0036,-1.0039,-1.0042,-1.0088,0,0,-1.0049,-1.0051,0,0,0,0,0,0,0,0,-0.997,-0.9974,-1.0003,-1.0003,-1.0002,-1.002,-1.0024,-1.0055,-1.0013,-1.0008,-1.0009,-1.0007,-1.0033,-1.0036,-1.0044,-1.009,-1.0091,-1.005,-1.0051,-1.0052,-1.0053,0,0,0,0,0,0,0,-0.9968,-0.9972,-1.0022,-1.0004,-1.0003,-0.9998,-1.0,-1.003,-1.0029,-1.0008,-1.0007,-1.001,-1.0033,-1.0042,-1.0045,-1.0091,-1.005,-1.0052,-1.0054,-1.0055,-1.0179,-1.0181,0,0,0,0,0,0,-0.9966,-0.9971,-1.0021,-1.0023,-0.9982,-1.0,-1.0003,-1.0016,-1.0029,-1.0029,-1.0011,-1.0009,-1.0038,-1.0042,-1.0046,-1.0104,-1.0052,-1.0055,-1.0056,-1.0178,-1.018,-1.0182,0,0,0,0,0,0,-0.9965,-0.9971,-1.002,-0.9996,-1.0002,-1.0003,-1.0018,-1.0017,-1.0026,-1.0031,-1.0031,-1.0021,-1.0037,-1.0042,-1.0078,-1.0104,-1.0056,-1.0058,-1.0175,-1.0178,-1.0181,-1.0219,0,0,0,0,0,0,-0.9963,-0.9971,-0.9988,-0.9997,-1.0003,-1.0052,-1.0019,-1.0019,-1.003,-1.0027,-1.0039,-1.004,-1.0036,-1.0075,-1.0081,-1.0107,-1.006,-1.0173,-1.0177,-1.018,-1.0215,-1.0222,-1.0229,0,0,0,0,0,-0.9961,-0.9998,-0.9989,-0.9995,-1.0025,-1.0053,-1.0057,-1.0051,-1.0032,-1.0051,-1.0054,-1.004,-1.01,-1.0079,-1.0085,-1.0113,-1.0172,-1.0176,-1.018,-1.0212,-1.0221,-1.0228,0,0,0,0,0,0,-0.9992,-0.9999,-0.9989,-1.003,-1.0041,-1.0049,-1.0071,-1.006,-1.0077,-1.0074,-1.0066,-1.0069,-1.0109,-1.0114,-1.009,-1.016,-1.0133,-1.0138,-1.0156,-1.0164,-1.017,-1.017,-1.0063,0,0,0,0,0,-1.0004,-1.0025,-1.003,-1.0065,-1.0071,-1.007,-1.0082,-1.0077,-1.0089,-1.0093,-1.0099,-1.0112,-1.0134,-1.0149,-1.0169,-1.0215,-1.0219,-1.0237,-1.0244,-1.0249,-1.0255,-1.0282,-1.0292,-1.0195,-1.0195,-1.0194,0,0,-1.0028,-1.0034,-1.0049,-1.0072,-1.008,-1.0104,-1.0075,-1.0101,-1.0119,-1.0098,-1.0133,-1.0137,-1.0151,-1.0194,-1.0212,-1.0199,-1.0282,-1.0254,-1.0258,-1.0261,-1.0287,-1.0297,-1.0305,-1.0197,-1.0197,-1.0196,0,0,-1.0086,-1.0092,-1.0123,-1.0132,-1.0144,-1.0143,-1.0151,-1.016,-1.0162,-1.0197,-1.0182,-1.0204,-1.0241,-1.0252,-1.0263,-1.0325,-1.0314,-1.0331,-1.0367,-1.0394,-1.0402,-1.0409,-1.0434,-1.0443,-1.0337,-1.0337,-1.0337,0,-1.0116,-1.015,-1.0141,-1.0169,-1.018,-1.0161,-1.0194,-1.0203,-1.0221,-1.0231,-1.0215,-1.0262,-1.027,-1.0316,-1.0331,-1.0339,-1.0349,-1.0332,-1.0401,-1.0408,-1.0414,-1.0438,-1.0447,-1.0339,-1.0339,-1.0338,-1.0338,0,-1.0187,-1.0211,-1.0235,-1.0254,-1.0268,-1.0298,-1.0294,-1.031,-1.0303,-1.0304,-1.0341,-1.0349,-1.0372,-1.0381,-1.0374,-1.0427,-1.0419,-1.0402,-1.0375,-1.0426,-1.0449,-1.0457,-1.0342,-1.0341,-1.0341,-1.034,0,0,-1.0268,-1.028,-1.0289,-1.0299,-1.0311,-1.033,-1.0359,-1.0381,-1.0396,-1.0409,-1.0435,-1.0467,-1.0452,-1.0464,-1.0458,-1.0482,-1.0534,-1.0462,-1.0463,-1.0478,-1.0595,-1.061,-1.0621,-1.0525,-1.0527,-1.0528,-1.0595,0,-1.0328,-1.0379,-1.0372,-1.0422,-1.0445,-1.0427,-1.0453,-1.0464,-1.0466,-1.0487,-1.0489,-1.0513,-1.049,-1.0497,-1.0519,-1.0523,-1.0558,-1.0517,-1.0552,-1.0554,-1.0553,-1.0632,-1.0648,-1.0711,-1.0604,-1.0605,-1.0606,0,-1.0406,-1.0422,-1.0474,-1.0484,-1.0494,-1.0518,-1.0538,-1.0557,-1.057,-1.0569,-1.0583,-1.0573,-1.0605,-1.0575,-1.0619,-1.0592,-1.0606,-1.061,-1.0612,-1.0618,-1.0586,-1.0643,-1.0731,-1.0742,-1.0619,-1.0618,-1.0617,0,-1.0463,-1.0498,-1.0534,-1.0542,-1.0553,-1.0571,-1.0577,-1.0588,-1.0602,-1.0619,-1.0628,-1.0649,-1.0661,-1.0678,-1.0675,-1.0653,-1.0722,-1.0691,-1.0725,-1.0725,-1.0743,-1.0742,-1.0837,-1.0746,-1.0746,-1.0745,-1.0745,0,-1.0534,-1.0567,-1.056,-1.0583,-1.0621,-1.0612,-1.065,-1.0653,-1.0663,-1.0687,-1.0672,-1.0695,-1.0688,-1.0711,-1.0709,-1.0748,-1.0752,-1.0755,-1.0755,-1.0758,-1.0759,-1.077,-1.0767,-1.0748,-1.0747,-1.0747,-1.0746,0,-1.0606,-1.0602,-1.0641,-1.0648,-1.0651,-1.0679,-1.0686,-1.0708,-1.0708,-1.0739,-1.0746,-1.0746,-1.0773,-1.0771,-1.0801,-1.0799,-1.0849,-1.0841,-1.0845,-1.0844,-1.0879,-1.0877,-1.0987,-1.1002,-1.0898,-1.0899,-1.09,0,-1.0653,-1.0678,-1.0688,-1.0703,-1.071,-1.0734,-1.0748,-1.074,-1.0755,-1.0772,-1.0793,-1.0818,-1.0838,-1.0882,-1.0886,-1.0909,-1.0905,-1.0941,-1.0908,-1.0912,-1.091,-1.091,-1.0914,-1.0949,-1.095,-1.0951,-1.0952,0,-1.0737,-1.0734,-1.0755,-1.0775,-1.0792,-1.0808,-1.0822,-1.0835,-1.0829,-1.0847,-1.0874,-1.089,-1.092,-1.0947,-1.0969,-1.0976,-1.0965,-1.0962,-1.0972,-1.0978,-1.098,-1.0983,-1.0866,-1.096,-1.0959,-1.0959,-1.0958,-1.0958,-1.0801,-1.0823,-1.0834,-1.0858,-1.0868,-1.0881,-1.0903,-1.0906,-1.0928,-1.0952,-1.0945,-1.0977,-1.099,-1.1019,-1.1028,-1.1053,-1.104,-1.1054,-1.1058,-1.1062,-1.1068,-1.0973,-1.1057,-1.1057,-1.1056,-1.1056,-1.1056,0,-1.0887,-1.0893,-1.0915,-1.0936,-1.0955,-1.0939,-1.0954,-1.0972,-1.1,-1.1012,-1.1032,-1.1064,-1.109,-1.1095,-1.112,-1.114,-1.1135,-1.1147,-1.1147,-1.115,-1.1076,-1.1067,-1.115,-1.115,-1.115,-1.115,-1.115,-1.115,-1.0935,-1.0974,-1.0972,-1.1016,-1.1021,-1.1052,-1.1062,-1.1075,-1.1086,-1.1122,-1.1143,-1.1145,-1.1156,-1.1182,-1.1205,-1.1206,-1.1218,-1.1232,-1.1232,-1.1164,-1.1154,-1.1146,-1.1137,-1.1234,-1.1234,-1.1304,-1.1304,-1.1305]},{"header":{"parameterUnit":"m.s-1","parameterCategory":1,"la1":30.2991,"la2":30.254,"lo1":-89.0895,"lo2":-89.0444,"dy":0.0017,"dx":0.0017,"nx":28,"ny":28,"refTime":"2024-03-03T03:00:00:Z","depth":0,"parameterNumber":3,"parameterNumberName":"V-component_of_WINDS"},"data":[0,0,0,0,0,0,0,0,0,0,0,0,0,0,0,0,0,0,0,0,0,0,0,0,0,0,0,0,0,0,0,0,0,0,0,0,0,0,0,0,0,0,0,0,0,0,0,0,0,0,0,0,0,0,0,0,0,0,0.0128,0.0128,0,0.0175,0.0176,0.0176,0.0188,0.0188,0.0187,0.0187,0.0234,0.0236,0.0238,0,0,0,0,0,0,0,0,0,0,0,0,0,0.0046,0.0047,0.0128,0.0128,0.0129,0.0175,0.0176,0.0177,0.0188,0.0188,0.0187,0.0187,0.0234,0.0236,0.0238,0,0,0,0,0,0,0,0,0,0,0,0,0,0.0086,0.0048,0.0128,0.014,0.0142,0.0175,0.0176,0.0177,0.0188,0.0188,0.0187,0.0187,0.0233,0.0236,0.0238,0.0262,0,0,0.0245,0.0246,0,0,0,0,0,0,0,0,0.0084,0.0089,0.0138,0.014,0.0141,0.0175,0.0164,0.0205,0.0188,0.0171,0.0187,0.0187,0.0215,0.0219,0.0229,0.0264,0.0266,0.0245,0.0247,0.0248,0.0248,0,0,0,0,0,0,0,0.0081,0.0087,0.0147,0.0139,0.0141,0.0143,0.0148,0.0172,0.0195,0.0172,0.0173,0.0179,0.0216,0.0227,0.023,0.0266,0.0245,0.0247,0.0249,0.025,0.0322,0.0323,0,0,0,0,0,0,0.0076,0.0085,0.0145,0.0148,0.0111,0.0145,0.0151,0.0165,0.0195,0.0199,0.0179,0.0179,0.0223,0.0227,0.0232,0.026,0.0248,0.025,0.0251,0.0322,0.0322,0.0323,0,0,0,0,0,0,0.0074,0.0081,0.0143,0.0117,0.0125,0.0147,0.0163,0.0166,0.0177,0.02,0.0204,0.0186,0.0223,0.0228,0.0254,0.0262,0.0251,0.0253,0.0321,0.0322,0.0323,0.0319,0,0,0,0,0,0,0.0072,0.0081,0.009,0.0117,0.0126,0.0165,0.0163,0.0167,0.0181,0.0181,0.0207,0.0211,0.0223,0.025,0.0256,0.0265,0.0255,0.032,0.0321,0.0322,0.0318,0.0319,0.032,0,0,0,0,0,0.0069,0.0087,0.0091,0.0098,0.0139,0.0166,0.0171,0.0184,0.0181,0.0191,0.0206,0.021,0.0261,0.0253,0.026,0.0269,0.032,0.0321,0.0322,0.0318,0.0319,0.032,0,0,0,0,0,0,0.0061,0.0091,0.0095,0.0123,0.0141,0.0167,0.018,0.0185,0.0205,0.0205,0.022,0.0226,0.025,0.0263,0.0253,0.0293,0.029,0.0293,0.0284,0.0286,0.0287,0.0283,0.0257,0,0,0,0,0,0.0062,0.0082,0.0107,0.0129,0.0138,0.0157,0.017,0.0178,0.0198,0.0206,0.0223,0.0242,0.0262,0.0275,0.0294,0.032,0.0326,0.033,0.0331,0.0332,0.0334,0.0347,0.035,0.0327,0.0327,0.0327,0,0,0.0065,0.0084,0.0096,0.0128,0.0143,0.0163,0.0164,0.0185,0.0199,0.0209,0.0234,0.0247,0.0269,0.0295,0.0307,0.0306,0.0341,0.0334,0.0334,0.0335,0.0349,0.0351,0.0353,0.0328,0.0327,0.0327,0,0,0.0081,0.0097,0.0117,0.0133,0.0156,0.0169,0.0174,0.0199,0.0208,0.0233,0.0241,0.0258,0.0293,0.0308,0.032,0.0341,0.0345,0.0347,0.0352,0.0365,0.0367,0.0368,0.0375,0.0377,0.0349,0.0349,0.0349,0,0.0081,0.0112,0.0126,0.0147,0.016,0.0171,0.019,0.0204,0.0233,0.0242,0.0241,0.0284,0.0299,0.0328,0.0333,0.0343,0.0348,0.0343,0.0365,0.0367,0.0369,0.0375,0.0378,0.0349,0.0349,0.0349,0.0349,0,0.0111,0.0131,0.0144,0.0172,0.0187,0.0207,0.0224,0.0237,0.0245,0.0257,0.0283,0.0302,0.0325,0.0333,0.034,0.0363,0.0361,0.0362,0.0359,0.0371,0.0377,0.038,0.0348,0.0348,0.0348,0.0349,0,0,0.0122,0.0157,0.0162,0.0174,0.0201,0.0217,0.0237,0.026,0.0271,0.0291,0.0307,0.0336,0.0337,0.0351,0.036,0.0372,0.0386,0.0372,0.0373,0.0373,0.0411,0.0409,0.0412,0.039,0.039,0.0391,0.0408,0,0.014,0.0176,0.019,0.0219,0.0238,0.0248,0.0266,0.0284,0.0296,0.0313,0.0327,0.0346,0.0347,0.0355,0.0367,0.0382,0.0394,0.0381,0.0404,0.0405,0.0398,0.0415,0.0413,0.0429,0.0411,0.0412,0.0412,0,0.0166,0.0185,0.0217,0.0241,0.0249,0.0264,0.0287,0.0303,0.0324,0.0332,0.0347,0.0356,0.0376,0.0372,0.0401,0.0391,0.0402,0.041,0.0411,0.0413,0.0408,0.0417,0.0435,0.0437,0.0416,0.0416,0.0415,0,0.0169,0.0204,0.0227,0.0237,0.0266,0.0277,0.0289,0.0309,0.0322,0.0341,0.035,0.0371,0.0382,0.0398,0.0412,0.0408,0.0439,0.0436,0.0445,0.0445,0.0451,0.045,0.047,0.0459,0.0459,0.0459,0.0459,0,0.0187,0.0206,0.0229,0.0243,0.0264,0.0279,0.0299,0.0312,0.033,0.0346,0.0357,0.0372,0.0389,0.0407,0.0417,0.0439,0.0444,0.045,0.0453,0.0449,0.0448,0.0456,0.0455,0.0459,0.0459,0.0459,0.0459,0,0.0195,0.0211,0.0237,0.0262,0.0269,0.0283,0.0304,0.0318,0.0331,0.0351,0.0357,0.0377,0.0397,0.0413,0.044,0.0447,0.0469,0.0472,0.0462,0.0463,0.0471,0.047,0.0496,0.05,0.0487,0.0487,0.0487,0,0.0205,0.0219,0.0246,0.0258,0.027,0.0289,0.0302,0.0318,0.0331,0.0355,0.0366,0.0387,0.0405,0.0438,0.0454,0.0475,0.0478,0.0486,0.0481,0.0476,0.0477,0.0476,0.0477,0.0486,0.0486,0.0486,0.0486,0,0.022,0.0228,0.0246,0.0268,0.0284,0.0301,0.0319,0.0328,0.0347,0.0361,0.0383,0.0397,0.0424,0.0445,0.0467,0.0479,0.0486,0.0488,0.0491,0.0486,0.048,0.0483,0.0463,0.0487,0.0487,0.0487,0.0487,0.0487,0.0229,0.0242,0.0262,0.0283,0.0298,0.0314,0.0328,0.0343,0.0361,0.0385,0.0393,0.0415,0.0434,0.0465,0.0477,0.0494,0.0494,0.0499,0.05,0.0501,0.05,0.0478,0.0498,0.0498,0.0498,0.0499,0.0499,0,0.0244,0.0258,0.0277,0.0301,0.0317,0.0322,0.0342,0.0355,0.0374,0.0392,0.041,0.0434,0.0454,0.0473,0.0494,0.0504,0.0507,0.0509,0.0508,0.051,0.0499,0.0494,0.0505,0.0505,0.0505,0.0505,0.0505,0.0505,0.0254,0.0276,0.0286,0.0315,0.0329,0.035,0.0361,0.0376,0.0391,0.0417,0.0434,0.0446,0.0464,0.0487,0.0505,0.051,0.0517,0.0518,0.0523,0.0512,0.0511,0.051,0.0505,0.0519,0.0519,0.0533,0.0533,0.0533]}]]